This is the latest recevied weather packets stored in our database for station/object IR1CH-3. If no packets are shown the sender has not sent any weather packets the latest 10 day(s).
| Time | Temp. | Humidity | Pressure | Rain* | Wind** | Luminosity | Snow |
|---|---|---|---|---|---|---|---|
| 1788017762 | 27.22° C | 73% | 0 hPa | - | - | - | - |
| 1788014153 | 27.78° C | 62% | 0 hPa | - | - | - | - |
| 1788012346 | 27.78° C | 62% | 1011.9 hPa | - | - | - | - |
| 1788010544 | 27.22° C | 70% | 0 hPa | - | - | - | - |
| 1788008740 | 26.67° C | 75% | 1012.2 hPa | - | - | - | - |
| 1788006937 | 26.67° C | 85% | 0 hPa | - | - | - | - |
| 1788005132 | 26.67° C | 82% | 0 hPa | - | - | - | - |
| 1788003329 | 27.22° C | 33% | 0 hPa | - | - | - | - |
| 1788001523 | 29.44° C | 78% | 1012.8 hPa | - | - | - | - |
| 1787999719 | 29.44° C | 77% | 0 hPa | - | - | - | - |
| 1787997915 | 30° C | 78% | 1012.7 hPa | - | - | - | - |
| 1787996110 | 29.44° C | 79% | 0 hPa | - | - | - | - |
| 1787994308 | 28.33° C | 86% | 1012.5 hPa | - | - | - | - |
| 1787992508 | 27.22° C | 95% | 0 hPa | - | - | - | - |
| 1787990699 | 26.11° C | 95% | 0 hPa | - | - | - | - |
| 1787988897 | 25.56° C | 99% | 0 hPa | - | - | - | - |
| 1787987088 | 25.56° C | 96% | 1011.9 hPa | - | - | - | - |
| 1787985287 | 25.56° C | 89% | 0 hPa | - | - | - | - |
| 1787983483 | 25.56° C | 87% | 0 hPa | - | - | - | - |
| 1787981413 | 23.89° C | 94% | 0 hPa | - | - | - | - |
| 1787979183 | 23.89° C | 99% | 0 hPa | - | - | - | - |
| 1787977380 | 23.89° C | 78% | 0 hPa | - | - | - | - |
| 1787975576 | 23.89° C | 78% | 0 hPa | - | - | - | - |
| 1787973773 | 23.89° C | 78% | 0 hPa | - | - | - | - |
| 1787971969 | 23.89° C | 78% | 0 hPa | - | - | - | - |
* Rain since midnight (hover to see other rain measurements)
** Current wind speed in m/s (hover to see current wind gust speed)